This is the latest recevied weather packets stored in our database for station/object AA8FM-13. If no packets are shown the sender has not sent any weather packets the latest 10 day(s).
| Time | Temp. | Humidity | Pressure | Rain* | Wind** | Luminosity | Snow |
|---|---|---|---|---|---|---|---|
| 1777941445 | 18.89° C | 60% | 1006.7 hPa | 0 mm | - | 0 W/m² | - |
| 1777941143 | 19.44° C | 57% | 1006.9 hPa | 0 mm | - | 0 W/m² | - |
| 1777940839 | 19.44° C | 57% | 1006.8 hPa | 0 mm | - | 1 W/m² | - |
| 1777940536 | 20° C | 56% | 1006.8 hPa | 0 mm | - | 1 W/m² | - |
| 1777940234 | 20° C | 57% | 1006.8 hPa | 0 mm | - | 2 W/m² | - |
| 1777939931 | 20° C | 56% | 1006.7 hPa | 0 mm | - | 4 W/m² | - |
| 1777939628 | 20° C | 55% | 1006.8 hPa | 0 mm | - | 5 W/m² | - |
| 1777939326 | 20° C | 54% | 1006.5 hPa | 0 mm | - | 6 W/m² | - |
| 1777939022 | 20.56° C | 55% | 1006.5 hPa | 0 mm | - | 9 W/m² | - |
| 1777938718 | 20.56° C | 54% | 1006.6 hPa | 0 mm | - | 10 W/m² | - |
| 1777938416 | 20° C | 54% | 1006.8 hPa | 0 mm | - | 11 W/m² | - |
| 1777938113 | 20.56° C | 55% | 1006.5 hPa | 0 mm | - | 14 W/m² | - |
| 1777937809 | 20.56° C | 54% | 1006.5 hPa | 0 mm | - | 16 W/m² | - |
| 1777937504 | 20.56° C | 53% | 1006.6 hPa | 0 mm | - | 20 W/m² | - |
| 1777937203 | 21.11° C | 53% | 1006.5 hPa | 0 mm | - | 28 W/m² | - |
| 1777936899 | 21.67° C | 52% | 1006.4 hPa | 0 mm | - | 45 W/m² | - |
| 1777936596 | 21.67° C | 51% | 1006.5 hPa | 0 mm | - | 62 W/m² | - |
| 1777936292 | 21.67° C | 51% | 1006.4 hPa | 0 mm | - | 80 W/m² | - |
| 1777935989 | 21.67° C | 51% | 1006.5 hPa | 0 mm | - | 76 W/m² | - |
| 1777935687 | 21.11° C | 53% | 1006.4 hPa | 0 mm | - | 65 W/m² | - |
| 1777935385 | 21.11° C | 55% | 1006.6 hPa | 0 mm | - | 40 W/m² | - |
| 1777935081 | 21.11° C | 54% | 1006.5 hPa | 0 mm | - | 66 W/m² | - |
| 1777934778 | 21.11° C | 53% | 1006.2 hPa | 0 mm | - | 47 W/m² | - |
| 1777934475 | 21.67° C | 53% | 1006.5 hPa | 0 mm | - | 63 W/m² | - |
| 1777934172 | 21.67° C | 53% | 1006.3 hPa | 0 mm | - | 67 W/m² | - |
* Rain latest hour (hover to see other rain measurements)
** Current wind speed in m/s (hover to see current wind gust speed)